SCP
0 0 0 0 0 0 0 0 0 0 0 0 0 0 0 0 0 0 0 0 0 0 0 0 1 0 0 0 0 0 0 0 0 0 0 1 1 1
0 0 0 0 0 0 0 0 0 0 0 0 0 0 0 0 0 0 0 0 0 0 0 0 1 0 0 0 0 0 0 0 0 0 0 0 0 1
0 0 0 0 0 0 0 0 0 0 0 0 0 0 0 0 0 0 0 0 0 0 0 0 0 0 0 0 0 0 0 0 0 0 0 0 0 0
0 0 0 0 0 0 0 0 0 0 0 0 0 0 0 0 0 0 0 0 0 0 0 0 0 1 0 0 0 0 0 0 0 0 0 0 0 0
0 0 0 0 0 0 0 0 0 0 0 0 0 0 0 0 0 0 0 0 0 0 0 0 0 1 1 0 0 0 0 0 0 0 0 0 0 0
0 0 0 0 0 0 0 0 0 0 0 0 0 0 0 0 0 0 0 0 0 0 0 0 0 0 0 0 0 0 0 0 0 0 0 0 0 0
0 0 0 0 0 0 0 0 0 0 0 0 0 0 0 0 0 0 0 0 0 0 0 0 0 0 0 0 0 0 0 0 0 0 0 0 0 0
0 0 0 0 0 0 0 0 0 0 0 0 0 0 0 0 0 0 0 0 0 0 0 0 0 0 0 0 0 0 1 0 0 0 0 0 0 0
0 0 0 0 0 0 0 0 0 0 0 0 0 0 0 0 0 0 0 0 0 0 0 0 0 0 0 0 0 0 1 1 0 0 0 0 0 0
0 0 0 0 0 0 0 0 0 0 0 0 0 0 0 0 0 0 0 0 0 0 0 0 0 0 0 0 0 0 1 1 1 0 0 0 0 0
0 0 0 0 0 0 0 0 0 0 0 0 0 0 0 0 0 0 0 0 0 0 0 0 0 0 0 0 0 0 1 1 1 1 0 0 0 0
0 0 0 0 0 0 0 0 0 0 0 0 0 0 0 0 0 0 0 0 0 0 0 0 0 0 0 0 0 0 0 0 1 1 0 0 0 0
0 0 0 0 0 0 0 0 0 0 0 0 0 0 0 0 0 0 0 0 0 0 0 0 0 0 0 0 0 0 0 0 0 0 0 0 0 0
0 0 0 0 0 0 0 0 0 0 0 0 0 0 0 0 0 0 0 0 0 0 0 0 0 0 0 0 0 0 0 0 0 0 0 0 0 0
0 0 0 0 0 0 0 0 0 0 0 0 0 0 0 0 0 0 0 0 0 0 0 0 0 0 0 0 0 0 0 0 0 0 0 0 0 0
0 0 0 0 0 0 0 0 0 0 0 0 0 0 0 0 0 0 0 0 0 0 0 0 0 0 0 0 0 0 0 0 0 0 0 0 0 0
0 0 0 0 0 0 0 0 0 0 0 0 0 0 0 0 0 0 0 0 0 0 0 0 0 0 0 0 0 0 0 0 0 0 0 0 0 0
0 0 0 0 0 0 0 0 0 0 0 0 0 0 0 0 0 0 0 0 0 0 0 0 0 0 0 0 0 0 0 0 0 0 0 0 0 0
0 0 0 0 0 0 0 0 0 0 0 0 0 0 0 0 0 0 0 0 0 0 0 0 0 0 0 0 0 0 0 0 0 0 0 0 0 0
0 0 0 0 0 0 0 0 0 0 0 0 0 0 0 0 0 0 0 0 0 0 0 0 0 0 0 0 0 0 0 0 0 0 0 0 0 0
0 0 0 0 0 0 0 0 0 0 0 0 0 0 0 0 0 0 0 0 0 0 0 0 0 0 0 0 0 0 0 0 0 0 0 0 0 0
0 0 0 0 0 0 0 0 0 0 0 0 0 0 0 0 0 0 0 0 0 0 0 0 0 0 0 0 0 0 0 0 0 0 0 0 0 0
0 0 0 0 0 0 0 0 0 0 0 0 0 0 0 0 0 0 0 0 0 0 0 0 0 0 0 0 0 0 0 0 0 0 0 0 0 0
Wind_Speed
3 3 3 2 2 2 2 2 3 3 4 3 2 2 2 3 5 4 4 7 8 9 9 8 7 8 8 8 8 9 9 9 10 10 10 10 9 9
2 2 3 2 2 2 2 2 3 3 4 3 2 2 3 3 5 4 4 7 7 8 9 9 8 8 7 7 8 9 9 10 10 11 11 11 10 9
2 2 3 2 2 2 2 2 2 2 5 5 3 2 3 3 4 4 4 3 4 7 8 8 8 8 7 7 7 8 9 9 10 10 10 11 10 9
3 3 4 2 3 3 3 3 3 3 4 5 4 3 3 3 3 4 4 3 3 7 8 8 8 8 7 7 7 7 8 9 9 10 10 10 10 10
4 4 4 3 4 3 4 4 3 3 3 4 4 3 3 2 3 3 4 3 4 5 7 7 8 8 7 7 7 7 8 8 8 9 9 9 9 9
3 4 4 4 5 4 4 4 3 3 3 3 4 3 3 2 2 3 4 3 3 3 5 5 7 7 7 7 7 7 8 8 8 8 8 8 8 7
3 3 4 5 5 5 3 3 3 3 3 3 3 3 3 2 3 2 3 3 3 2 3 3 3 3 4 6 7 7 8 8 8 8 7 7 7 7
4 3 4 4 6 7 6 4 4 4 4 3 3 4 5 4 3 2 3 2 3 2 2 4 2 3 4 3 6 8 8 8 8 8 7 7 7 6
3 3 3 3 4 3 4 4 5 6 6 4 5 5 5 4 3 4 3 4 4 3 2 4 3 4 4 4 8 8 8 8 8 8 8 7 6 6
3 3 3 3 2 2 2 3 3 4 4 4 4 5 4 4 4 5 5 4 4 2 1 3 3 4 4 4 7 7 8 8 8 8 8 7 6 6
2 2 3 2 3 3 2 2 3 3 4 5 5 5 6 5 3 1 2 1 3 3 1 2 3 3 3 3 5 6 7 7 7 7 8 6 5 5
2 2 3 3 3 3 2 2 3 3 2 3 4 5 4 4 4 3 3 2 2 3 1 1 2 1 3 3 2 3 4 6 7 7 7 6 4 2
2 2 2 5 5 4 3 2 3 3 1 2 2 3 2 2 2 2 3 3 3 3 2 1 1 1 2 3 3 3 2 3 3 4 5 6 5 2
2 2 3 5 5 4 3 3 3 2 1 1 2 2 2 3 3 3 3 3 4 4 3 2 2 2 2 2 3 3 3 3 2 3 2 4 4 4
2 4 5 5 4 3 3 4 2 1 1 1 2 3 3 3 2 2 2 2 2 2 2 2 2 2 2 3 3 2 3 3 2 2 2 2 2 2
2 3 4 5 3 3 3 2 1 1 1 2 2 2 2 2 2 1 1 1 2 2 1 1 2 3 3 3 3 3 2 3 2 2 2 2 2 1
2 2 2 2 2 2 2 2 1 1 1 1 1 2 2 2 2 1 1 1 1 2 2 2 2 2 2 2 2 3 3 3 2 2 1 2 2 1
2 1 1 1 1 2 2 2 1 1 1 1 1 1 2 2 2 2 1 1 2 2 2 2 2 2 2 2 3 3 2 2 2 1 1 1 3 2
2 1 1 1 1 1 2 2 2 2 1 1 1 1 1 1 1 1 1 1 2 2 2 1 1 1 1 3 3 2 2 2 1 1 1 1 3 3
1 1 1 2 1 2 2 2 2 2 1 1 1 1 1 1 2 2 2 2 2 2 2 2 2 2 3 3 2 3 2 2 1 1 1 1 2 4
2 2 2 2 2 2 2 2 2 2 2 2 2 2 2 2 2 2 2 3 2 2 3 3 3 2 1 1 1 2 2 3 3 2 1 1 1 2
2 2 2 2 2 2 2 2 2 2 2 2 2 2 2 2 2 3 2 2 2 3 3 3 2 0 1 2 2 2 2 2 3 4 4 3 2 2
3 3 2 2 2 2 2 2 3 3 2 2 2 2 2 2 2 2 3 3 2 2 2 2 1 0 1 2 2 2 2 2 2 2 2 4 6 7
Wind_Direction
235 228 225 228 228 229 220 211 223 270 283 277 282 288 297 296 301 304 302 303 305 306 305 302 302 300 297 296 298 298 298 299 296 293 293 286 278 275
237 231 231 229 230 229 229 229 228 237 264 273 268 289 297 299 305 305 297 303 300 303 304 303 300 297 296 293 293 293 295 296 296 294 296 291 281 277
237 232 243 234 229 227 225 226 231 233 256 281 282 286 283 297 308 306 301 295 295 304 303 300 298 297 299 301 300 298 297 297 295 294 293 289 282 277
233 233 241 243 236 229 224 226 231 231 239 268 282 280 277 283 294 299 303 298 292 302 302 300 298 297 300 302 301 304 303 299 296 293 294 293 285 279
230 233 238 234 245 240 235 236 237 240 237 251 272 274 278 292 306 302 298 296 296 300 300 297 297 297 297 300 301 304 306 300 297 294 295 296 294 286
242 239 238 234 241 244 239 239 239 242 241 246 259 272 279 290 291 293 299 297 294 307 298 298 301 300 300 301 303 303 305 302 294 291 293 293 294 293
255 253 251 255 253 249 248 237 230 240 244 248 254 266 270 277 273 278 279 299 289 297 298 298 302 299 299 297 298 300 300 300 293 288 289 287 286 285
261 262 260 255 259 258 259 251 240 236 238 242 254 254 261 264 274 273 279 299 292 299 293 288 290 284 286 284 296 298 297 298 292 286 286 287 287 286
261 263 265 267 257 251 257 257 259 259 244 235 245 253 260 258 260 262 258 258 262 279 294 282 282 273 282 288 300 301 301 300 301 295 287 284 282 285
264 258 262 264 261 250 252 256 262 265 258 248 246 254 260 259 244 243 248 261 275 271 228 269 281 277 287 285 298 300 302 301 301 301 289 281 277 280
293 279 264 259 279 273 257 259 277 288 295 285 276 274 277 275 262 239 248 254 277 278 249 257 279 288 287 283 295 305 309 308 308 309 309 291 283 280
315 309 293 285 287 276 249 239 259 276 296 303 301 298 282 270 258 226 218 226 250 268 245 239 280 322 305 288 295 314 314 309 311 313 320 320 308 291
309 309 305 304 294 284 277 256 271 284 270 270 279 287 288 276 260 242 225 218 227 247 233 213 259 265 263 290 301 299 307 309 310 310 318 324 323 319
295 300 305 315 315 311 311 314 315 322 270 257 268 274 276 280 281 272 252 240 233 239 234 213 228 230 249 278 287 304 307 309 312 313 319 324 321 324
321 325 333 332 330 331 334 337 344 330 285 258 266 272 273 275 284 292 285 275 272 261 239 227 229 230 224 244 267 286 306 306 309 318 327 328 324 331
343 354 349 344 346 360 356 353 354 320 277 261 274 287 298 293 284 288 279 288 292 300 311 283 259 223 229 243 245 267 267 282 306 312 311 307 316 316
357 16 10 360 1 358 359 354 349 343 312 300 287 298 304 304 305 315 297 290 254 277 308 329 324 296 243 226 245 257 268 275 275 311 329 317 306 307
30 27 347 345 330 323 323 324 325 318 311 309 300 288 287 293 309 326 331 282 267 279 288 306 334 344 340 298 233 250 269 272 285 297 279 282 300 306
50 21 338 321 307 301 296 294 298 302 303 300 292 290 292 293 297 307 308 298 282 282 286 280 249 186 241 284 294 231 237 270 303 300 281 252 271 295
4 319 304 302 302 295 289 287 292 304 298 292 287 283 277 268 271 275 278 281 285 289 292 283 251 218 214 235 265 289 266 234 234 268 288 277 278 293
309 297 290 290 291 293 291 284 277 277 282 278 272 270 270 263 266 266 266 274 276 278 276 277 271 263 231 128 285 295 291 270 253 237 237 265 304 321
282 282 284 283 281 282 289 288 284 278 277 273 271 269 265 255 257 262 261 261 265 265 275 284 290 230 176 195 236 266 295 320 308 295 271 239 214 226
277 279 278 278 272 272 271 275 273 272 267 267 273 273 264 261 259 256 257 257 263 270 280 288 303 275 231 220 233 254 278 303 322 330 304 294 271 268